Time,TemperatureF,DewpointF,PressureIn,WindDirection,WindDirectionDegrees,WindSpeedMPH,WindSpeedGustMPH,Humidity,HourlyPrecipIn,Conditions,Clouds,dailyrainin,SoftwareType,DateUTC
2013-03-07 00:00:00,39.2,28.0,29.37,NW,315,10.1,10.1,64,0.00,,,0.29,WUHU216HW,2013-03-07 05:00:00,
2013-03-07 00:05:00,39.2,28.0,29.37,NW,315,10.1,10.1,64,0.00,,,0.29,WUHU216HW,2013-03-07 05:05:00,
2013-03-07 00:29:00,38.9,27.6,29.37,NNW,338,4.5,4.5,64,0.00,,,0.00,WUHU216HW,2013-03-07 05:29:00,
2013-03-07 00:30:00,38.9,27.6,29.37,NNW,338,4.5,4.5,64,0.00,,,0.00,WUHU216HW,2013-03-07 05:30:00,
2013-03-07 00:35:00,38.9,27.6,29.37,NNW,338,4.5,4.5,64,0.00,,,0.00,WUHU216HW,2013-03-07 05:35:00,
2013-03-07 00:59:00,38.9,27.6,29.37,NW,315,4.7,4.7,64,0.00,,,0.00,WUHU216HW,2013-03-07 05:59:00,
2013-03-07 01:00:00,38.9,27.6,29.37,NW,315,4.7,4.7,64,0.00,,,0.00,WUHU216HW,2013-03-07 06:00:00,
2013-03-07 01:05:00,38.9,27.6,29.37,NW,315,4.7,4.7,64,0.00,,,0.00,WUHU216HW,2013-03-07 06:05:00,
2013-03-07 01:30:00,38.7,27.5,29.38,NNW,338,8.5,8.5,64,0.00,,,0.00,WUHU216HW,2013-03-07 06:30:00,
2013-03-07 01:35:00,38.7,27.5,29.38,NNW,338,8.5,8.5,64,0.00,,,0.00,WUHU216HW,2013-03-07 06:35:00,
2013-03-07 01:59:00,38.5,27.4,29.38,NNW,338,4.3,4.3,64,0.00,,,0.00,WUHU216HW,2013-03-07 06:59:00,
2013-03-07 02:00:00,38.5,27.4,29.38,NNW,338,4.3,4.3,64,0.00,,,0.00,WUHU216HW,2013-03-07 07:00:00,
2013-03-07 02:05:00,38.5,27.4,29.38,NNW,338,4.3,4.3,64,0.00,,,0.00,WUHU216HW,2013-03-07 07:05:00,
2013-03-07 02:30:00,38.5,27.4,29.37,NNW,338,5.6,5.6,64,0.00,,,0.00,WUHU216HW,2013-03-07 07:30:00,
2013-03-07 02:35:00,38.5,27.4,29.37,NNW,338,5.6,5.6,64,0.00,,,0.00,WUHU216HW,2013-03-07 07:35:00,
2013-03-07 03:00:00,38.5,26.9,29.37,NNW,338,6.5,6.5,63,0.00,,,0.00,WUHU216HW,2013-03-07 08:00:00,
2013-03-07 03:05:00,38.5,26.9,29.37,NNW,338,6.5,6.5,63,0.00,,,0.00,WUHU216HW,2013-03-07 08:05:00,
2013-03-07 03:30:00,38.2,26.7,29.37,NNW,338,2.5,2.5,63,0.00,,,0.00,WUHU216HW,2013-03-07 08:30:00,
2013-03-07 03:35:00,38.2,26.7,29.37,NNW,338,2.5,2.5,63,0.00,,,0.00,WUHU216HW,2013-03-07 08:35:00,
2013-03-07 04:00:00,38.2,26.7,29.37,ENE,68,5.4,5.4,63,0.00,,,0.00,WUHU216HW,2013-03-07 09:00:00,
2013-03-07 04:05:00,38.2,26.7,29.37,ENE,68,5.4,5.4,63,0.00,,,0.00,WUHU216HW,2013-03-07 09:05:00,
2013-03-07 04:30:00,38.2,27.0,29.39,WNW,293,3.4,3.4,64,0.00,,,0.00,WUHU216HW,2013-03-07 09:30:00,
2013-03-07 04:35:00,38.2,27.0,29.39,WNW,293,3.4,3.4,64,0.00,,,0.00,WUHU216HW,2013-03-07 09:35:00,
2013-03-07 05:00:00,38.3,27.2,29.40,North,0,4.5,4.5,64,0.00,,,0.00,WUHU216HW,2013-03-07 10:00:00,
2013-03-07 05:05:00,38.3,27.2,29.40,North,0,4.5,4.5,64,0.00,,,0.00,WUHU216HW,2013-03-07 10:05:00,
2013-03-07 05:30:00,38.2,27.0,29.40,WNW,293,8.3,8.3,64,0.00,,,0.00,WUHU216HW,2013-03-07 10:30:00,
2013-03-07 05:35:00,38.2,27.0,29.40,WNW,293,8.3,8.3,64,0.00,,,0.00,WUHU216HW,2013-03-07 10:35:00,
2013-03-07 06:00:00,38.2,27.0,29.40,WNW,293,4.0,4.0,64,0.00,,,0.00,WUHU216HW,2013-03-07 11:00:00,
2013-03-07 06:05:00,38.2,27.0,29.40,WNW,293,4.0,4.0,64,0.00,,,0.00,WUHU216HW,2013-03-07 11:05:00,
2013-03-07 06:30:00,37.8,26.6,29.41,SW,225,3.8,3.8,64,0.00,,,0.00,WUHU216HW,2013-03-07 11:30:00,
2013-03-07 06:35:00,37.8,26.6,29.41,SW,225,3.8,3.8,64,0.00,,,0.00,WUHU216HW,2013-03-07 11:35:00,
2013-03-07 07:00:00,37.6,26.9,29.42,NW,315,3.8,3.8,65,0.00,,,0.00,WUHU216HW,2013-03-07 12:00:00,
2013-03-07 07:05:00,37.6,26.9,29.42,NW,315,3.8,3.8,65,0.00,,,0.00,WUHU216HW,2013-03-07 12:05:00,
2013-03-07 07:30:00,38.5,26.9,29.44,NW,315,7.8,7.8,63,0.00,,,0.00,WUHU216HW,2013-03-07 12:30:00,
2013-03-07 07:35:00,38.5,26.9,29.44,NW,315,7.8,7.8,63,0.00,,,0.00,WUHU216HW,2013-03-07 12:35:00,
2013-03-07 08:00:00,39.1,27.1,29.45,NNW,338,6.0,6.0,62,0.00,,,0.00,WUHU216HW,2013-03-07 13:00:00,
2013-03-07 08:05:00,39.1,27.1,29.45,NNW,338,6.0,6.0,62,0.00,,,0.00,WUHU216HW,2013-03-07 13:05:00,
2013-03-07 08:30:00,39.8,27.4,29.46,North,0,5.6,5.6,61,0.00,,,0.00,WUHU216HW,2013-03-07 13:30:00,
2013-03-07 08:35:00,39.8,27.4,29.46,North,0,5.6,5.6,61,0.00,,,0.00,WUHU216HW,2013-03-07 13:35:00,
2013-03-07 09:00:00,40.3,27.1,29.46,NNW,338,6.0,6.0,59,0.00,,,0.00,WUHU216HW,2013-03-07 14:00:00,
2013-03-07 09:05:00,40.3,27.1,29.46,NNW,338,6.0,6.0,59,0.00,,,0.00,WUHU216HW,2013-03-07 14:05:00,
2013-03-07 09:30:00,40.9,26.3,29.47,NW,315,10.5,10.5,56,0.00,,,0.00,WUHU216HW,2013-03-07 14:30:00,
2013-03-07 09:35:00,40.9,26.3,29.47,NW,315,10.5,10.5,56,0.00,,,0.00,WUHU216HW,2013-03-07 14:35:00,
2013-03-07 09:59:00,41.4,26.4,29.48,NNW,338,10.1,10.1,55,0.00,,,0.00,WUHU216HW,2013-03-07 14:59:00,
2013-03-07 10:00:00,41.4,26.4,29.48,NNW,338,10.1,10.1,55,0.00,,,0.00,WUHU216HW,2013-03-07 15:00:00,
2013-03-07 10:05:00,41.4,26.4,29.48,NNW,338,10.1,10.1,55,0.00,,,0.00,WUHU216HW,2013-03-07 15:05:00,
2013-03-07 10:29:00,41.6,26.6,29.48,WNW,293,13.6,13.6,55,0.00,,,0.00,WUHU216HW,2013-03-07 15:29:00,
2013-03-07 10:30:00,41.6,26.6,29.48,WNW,293,13.6,13.6,55,0.00,,,0.00,WUHU216HW,2013-03-07 15:30:00,
2013-03-07 10:35:00,41.6,26.6,29.48,WNW,293,13.6,13.6,55,0.00,,,0.00,WUHU216HW,2013-03-07 15:35:00,
2013-03-07 11:00:00,42.8,26.8,29.48,NW,315,14.3,14.3,53,0.00,,,0.00,WUHU216HW,2013-03-07 16:00:00,
2013-03-07 11:05:00,42.8,26.8,29.48,NW,315,14.3,14.3,53,0.00,,,0.00,WUHU216HW,2013-03-07 16:05:00,
2013-03-07 11:30:00,43.2,27.2,29.48,NW,315,10.5,10.5,53,0.00,,,0.00,WUHU216HW,2013-03-07 16:30:00,
2013-03-07 11:35:00,43.2,27.2,29.48,NW,315,10.5,10.5,53,0.00,,,0.00,WUHU216HW,2013-03-07 16:35:00,
2013-03-07 11:59:00,43.2,26.7,29.48,NNW,338,9.6,9.6,52,0.00,,,0.00,WUHU216HW,2013-03-07 16:59:00,
2013-03-07 12:00:00,43.2,26.7,29.48,NNW,338,9.6,9.6,52,0.00,,,0.00,WUHU216HW,2013-03-07 17:00:00,
2013-03-07 12:05:00,43.2,26.7,29.48,NNW,338,9.6,9.6,52,0.00,,,0.00,WUHU216HW,2013-03-07 17:05:00,
2013-03-07 12:30:00,42.3,26.7,29.48,NW,315,8.3,8.3,54,0.00,,,0.00,WUHU216HW,2013-03-07 17:30:00,
2013-03-07 12:35:00,42.3,26.7,29.48,NW,315,8.3,8.3,54,0.00,,,0.00,WUHU216HW,2013-03-07 17:35:00,
2013-03-07 13:00:00,42.1,27.9,29.48,West,270,15.7,15.7,57,0.00,,,0.00,WUHU216HW,2013-03-07 18:00:00,
2013-03-07 13:05:00,42.1,27.9,29.48,West,270,15.7,15.7,57,0.00,,,0.00,WUHU216HW,2013-03-07 18:05:00,
2013-03-07 13:29:00,41.9,28.2,29.48,WNW,293,9.2,9.2,58,0.00,,,0.00,WUHU216HW,2013-03-07 18:29:00,
2013-03-07 13:30:00,41.9,28.2,29.48,WNW,293,9.2,9.2,58,0.00,,,0.00,WUHU216HW,2013-03-07 18:30:00,
2013-03-07 13:35:00,41.9,28.2,29.48,WNW,293,9.2,9.2,58,0.00,,,0.00,WUHU216HW,2013-03-07 18:35:00,
2013-03-07 14:00:00,43.4,27.8,29.47,NW,315,12.5,12.5,54,0.00,,,0.00,WUHU216HW,2013-03-07 19:00:00,
2013-03-07 14:05:00,43.4,27.8,29.47,NW,315,12.5,12.5,54,0.00,,,0.00,WUHU216HW,2013-03-07 19:05:00,
2013-03-07 14:30:00,42.5,26.9,29.46,SSW,203,12.8,12.8,54,0.00,,,0.00,WUHU216HW,2013-03-07 19:30:00,
2013-03-07 14:35:00,42.5,26.9,29.46,SSW,203,12.8,12.8,54,0.00,,,0.00,WUHU216HW,2013-03-07 19:35:00,
2013-03-07 14:59:00,43.2,27.6,29.46,NNW,338,11.9,11.9,54,0.00,,,0.00,WUHU216HW,2013-03-07 19:59:00,
2013-03-07 15:00:00,43.2,27.6,29.46,NNW,338,11.9,11.9,54,0.00,,,0.00,WUHU216HW,2013-03-07 20:00:00,
2013-03-07 15:05:00,43.2,27.6,29.46,NNW,338,11.9,11.9,54,0.00,,,0.00,WUHU216HW,2013-03-07 20:05:00,
2013-03-07 15:30:00,42.8,26.8,29.47,NW,315,15.2,15.2,53,0.00,,,0.00,WUHU216HW,2013-03-07 20:30:00,
2013-03-07 15:35:00,42.8,26.8,29.47,NW,315,15.2,15.2,53,0.00,,,0.00,WUHU216HW,2013-03-07 20:35:00,
2013-03-07 16:00:00,43.0,27.0,29.47,WNW,293,12.1,12.1,53,0.00,,,0.00,WUHU216HW,2013-03-07 21:00:00,
2013-03-07 16:05:00,43.0,27.0,29.47,WNW,293,12.1,12.1,53,0.00,,,0.00,WUHU216HW,2013-03-07 21:05:00,
2013-03-07 16:29:00,43.2,27.2,29.47,NW,315,7.6,7.6,53,0.00,,,0.00,WUHU216HW,2013-03-07 21:29:00,
2013-03-07 16:30:00,43.2,27.2,29.47,NW,315,7.6,7.6,53,0.00,,,0.00,WUHU216HW,2013-03-07 21:30:00,
2013-03-07 16:35:00,43.2,27.2,29.47,NW,315,7.6,7.6,53,0.00,,,0.00,WUHU216HW,2013-03-07 21:35:00,
2013-03-07 17:00:00,42.1,26.2,29.47,NW,315,11.4,11.4,53,0.00,,,0.00,WUHU216HW,2013-03-07 22:00:00,
2013-03-07 17:05:00,42.1,26.2,29.47,NW,315,11.4,11.4,53,0.00,,,0.00,WUHU216HW,2013-03-07 22:05:00,
2013-03-07 17:29:00,41.4,26.4,29.49,NW,315,5.6,5.6,55,0.00,,,0.00,WUHU216HW,2013-03-07 22:29:00,
2013-03-07 17:30:00,41.4,26.4,29.49,NW,315,5.6,5.6,55,0.00,,,0.00,WUHU216HW,2013-03-07 22:30:00,
2013-03-07 17:35:00,41.4,26.4,29.49,NW,315,5.6,5.6,55,0.00,,,0.00,WUHU216HW,2013-03-07 22:35:00,
2013-03-07 18:00:00,40.5,26.8,29.50,NW,315,9.4,9.4,58,0.00,,,0.00,WUHU216HW,2013-03-07 23:00:00,
2013-03-07 18:05:00,40.5,26.8,29.50,NW,315,9.4,9.4,58,0.00,,,0.00,WUHU216HW,2013-03-07 23:05:00,
2013-03-07 18:30:00,40.0,26.7,29.50,NW,315,10.1,10.1,59,0.00,,,0.00,WUHU216HW,2013-03-07 23:30:00,
2013-03-07 18:35:00,40.0,26.7,29.50,NW,315,10.1,10.1,59,0.00,,,0.00,WUHU216HW,2013-03-07 23:35:00,
2013-03-07 19:00:00,39.6,26.8,29.51,WNW,293,8.3,8.3,60,0.00,,,0.00,WUHU216HW,2013-03-08 00:00:00,
2013-03-07 19:05:00,39.6,26.8,29.51,WNW,293,8.3,8.3,60,0.00,,,0.00,WUHU216HW,2013-03-08 00:05:00,
2013-03-07 19:30:00,39.1,26.6,29.51,WNW,293,8.7,8.7,61,0.00,,,0.00,WUHU216HW,2013-03-08 00:30:00,
2013-03-07 19:35:00,39.1,26.6,29.51,WNW,293,8.7,8.7,61,0.00,,,0.00,WUHU216HW,2013-03-08 00:35:00,
2013-03-07 20:00:00,38.7,27.1,29.51,WNW,293,8.5,8.5,63,0.00,,,0.00,WUHU216HW,2013-03-08 01:00:00,
2013-03-07 20:05:00,38.7,27.1,29.51,WNW,293,8.5,8.5,63,0.00,,,0.00,WUHU216HW,2013-03-08 01:05:00,
2013-03-07 20:30:00,38.3,27.2,29.52,WNW,293,8.9,8.9,64,0.00,,,0.00,WUHU216HW,2013-03-08 01:30:00,
2013-03-07 20:35:00,38.3,27.2,29.52,WNW,293,8.9,8.9,64,0.00,,,0.00,WUHU216HW,2013-03-08 01:35:00,
2013-03-07 20:59:00,38.0,27.6,29.51,WNW,293,14.5,14.5,66,0.00,,,0.00,WUHU216HW,2013-03-08 01:59:00,
2013-03-07 21:00:00,38.0,27.6,29.51,WNW,293,14.5,14.5,66,0.00,,,0.00,WUHU216HW,2013-03-08 02:00:00,
2013-03-07 21:05:00,38.0,27.6,29.51,WNW,293,14.5,14.5,66,0.00,,,0.00,WUHU216HW,2013-03-08 02:05:00,
2013-03-07 21:30:00,37.8,27.8,29.51,West,270,12.1,12.1,67,0.00,,,0.00,WUHU216HW,2013-03-08 02:30:00,
2013-03-07 21:35:00,37.8,27.8,29.51,West,270,12.1,12.1,67,0.00,,,0.00,WUHU216HW,2013-03-08 02:35:00,
2013-03-07 22:00:00,37.6,28.5,29.51,WNW,293,10.5,10.5,69,0.00,,,0.00,WUHU216HW,2013-03-08 03:00:00,
2013-03-07 22:05:00,37.6,28.5,29.51,WNW,293,10.5,10.5,69,0.00,,,0.00,WUHU216HW,2013-03-08 03:05:00,
2013-03-07 22:30:00,37.8,28.2,29.52,NW,315,13.9,13.9,68,0.00,,,0.00,WUHU216HW,2013-03-08 03:30:00,
2013-03-07 22:35:00,37.8,28.2,29.52,NW,315,13.9,13.9,68,0.00,,,0.00,WUHU216HW,2013-03-08 03:35:00,
2013-03-07 23:00:00,37.6,28.8,29.52,North,0,8.1,8.1,70,0.00,,,0.00,WUHU216HW,2013-03-08 04:00:00,
2013-03-07 23:05:00,37.6,28.8,29.52,North,0,8.1,8.1,70,0.00,,,0.00,WUHU216HW,2013-03-08 04:05:00,
2013-03-07 23:29:00,37.1,28.6,29.52,NNW,338,7.6,7.6,71,0.00,,,0.00,WUHU216HW,2013-03-08 04:29:00,
2013-03-07 23:30:00,37.1,28.6,29.52,NNW,338,7.6,7.6,71,0.00,,,0.00,WUHU216HW,2013-03-08 04:30:00,
2013-03-07 23:35:00,37.1,28.6,29.52,NNW,338,7.6,7.6,71,0.00,,,0.00,WUHU216HW,2013-03-08 04:35:00,